{"data":{"norad_id":60193,"intl_designator":"2024-124L","name":"STARLINK-11172 [DTC]","alt_names":[],"object_type":"PAYLOAD","status":"ACTIVE","operator":null,"country":"US","launch_date":"2024-07-03","launch_site_code":"AFETR","launch_vehicle":null,"mission":null,"orbit_class":"UNKNOWN","rcs_meters":null,"size_class":null,"mass_kg":null,"dimensions":null,"purposes":["comms"],"wikipedia_slug":null,"has_3d_model":false,"image_url":null,"decayed_at":null,"tle_current":{"epoch":"2026-05-25T05:24:07.468416Z","epoch_age_seconds":62482,"freshness":"FRESH","line1":"1 60193U 24124L   26145.22508644 -.00003054  00000+0 -20356-4 0  9994","line2":"2 60193  53.1591 144.0482 0001666  75.0261 285.0941 15.69703765108555","mean_motion":15.69703765,"eccentricity":0.0001666,"inclination_deg":53.1591,"raan_deg":144.0482,"arg_perigee_deg":75.0261,"mean_anomaly_deg":285.0941,"bstar":-2.0356e-5,"rev_number":10855,"period_min":91.737054602784,"perigee_km":358.62206158887,"apogee_km":360.86712373555,"semimajor_km":6737.8815926622,"source":"CELESTRAK","updated_at":"2026-05-25T13:38:19.195475Z"}}}